Tracking 31027 objects as of 19-Jul-2025
HD Live streaming from Space Station
objects crossing your sky now

FREGAT R/B

Track FREGAT R/B now!
10-day predictions


NORAD ID: 40352
Int'l Code: 2014-083E
Perigee: 7,678.2 km
Apogee: 7,702.4 km
Inclination: 0.1 °
Period: 276.6 minutes
Semi major axis: 14061 km
RCS: Unknown
Launch date: December 18, 2014
Source: Commonwealth of Independent States (former USSR) (CIS)
Launch site: FRENCH GUIANA (FRGUI)

Note: This is a ROCKET BODY
Your satellite tracking list
THORAD DELTA 1 DEB
Track 1 satellite(s)




NASA's NSSDC Master Catalog

Two Line Element Set (TLE):
1 40352U 14083E   25199.22474931 -.00000010  00000-0  00000-0 0  9990
2 40352   0.1240 350.6974 0008588 172.2832 197.0476  5.20672177201296
Source of the keplerian elements: AFSPC